Theta_e
302 303 303 296 293 297 290 287 289 293 298 305 309 311 316 320 322 324 329 332 334 335 336 337 339 341 343 345 346 346 347 347
301 302 301 300 300 293 289 286 285 291 293 297 303 308 311 316 319 322 327 331 333 336 337 338 340 342 344 346 346 346 346 343
298 297 297 296 294 292 292 290 287 286 291 300 304 308 311 314 320 321 324 329 331 336 339 340 340 342 344 346 347 346 343 339
293 298 301 301 297 295 293 288 289 290 292 304 307 308 314 315 319 318 323 328 331 336 338 339 339 341 343 345 346 348 345 337
290 292 296 295 296 293 292 291 289 291 293 305 307 310 314 314 316 318 322 325 329 332 335 337 337 340 342 345 346 348 345 335
292 294 296 295 298 297 295 290 291 293 297 302 308 310 313 316 316 316 320 324 327 329 332 334 335 338 341 344 346 346 342 336
299 297 298 298 298 298 296 296 295 298 297 303 308 310 312 317 318 318 317 320 324 328 329 331 332 335 339 342 344 345 339 337
296 298 298 297 299 300 300 299 299 299 299 304 310 312 313 315 317 317 318 319 321 326 328 329 331 331 337 340 342 345 341 338
292 294 294 291 298 298 300 300 301 297 303 305 308 311 312 313 316 318 318 320 319 321 324 326 328 331 335 339 343 344 342 341
293 291 286 297 302 303 303 306 306 306 305 307 310 313 314 314 315 316 318 320 320 320 323 325 327 330 335 338 341 343 342 342
289 288 293 303 306 306 306 304 310 309 312 312 312 313 312 314 318 317 320 322 325 325 325 326 329 332 334 337 340 342 341 340
291 289 290 299 308 313 310 300 310 311 310 309 310 304 307 313 316 315 318 321 324 328 329 331 331 335 334 335 338 339 340 339
295 293 297 307 309 313 300 299 310 311 312 311 308 311 314 318 318 320 322 325 328 330 332 332 334 335 333 333 335 338 338 339
298 296 293 309 310 303 308 309 311 313 312 312 313 315 317 319 319 321 322 324 326 327 331 335 334 335 332 332 334 335 335 333
300 299 307 310 307 310 312 312 312 311 313 316 316 317 320 320 321 323 325 326 330 331 331 332 332 334 330 329 332 332 328 327
304 306 307 307 309 310 311 310 311 313 314 317 317 321 321 324 324 323 325 326 328 328 326 326 328 329 329 331 330 328 326 327
303 307 309 308 310 311 310 310 310 310 312 312 312 312 313 316 323 323 323 325 326 325 325 327 328 327 330 329 328 327 326 325
299 307 306 305 310 314 309 309 310 309 308 309 310 310 312 310 319 322 323 325 323 323 325 325 326 326 328 330 330 329 326 324
304 306 307 308 309 310 306 306 307 307 308 307 309 308 310 310 313 319 323 325 324 323 323 324 325 326 327 327 328 327 326 321
Wind_Speed
4 6 10 4 4 7 8 2 3 5 9 9 6 7 8 14 14 18 20 20 21 18 18 17 17 18 18 15 14 12 13 10
6 2 3 10 10 4 3 6 5 5 5 7 6 11 9 8 17 18 19 17 18 18 19 18 20 18 16 16 17 13 13 12
6 13 14 3 3 5 7 5 8 4 8 10 10 11 12 14 19 18 18 17 18 19 21 21 20 16 16 15 15 14 14 13
13 4 6 11 11 10 8 6 2 5 9 5 12 6 8 12 14 8 12 16 18 19 19 18 17 17 18 16 15 16 13 12
7 6 2 5 6 6 5 5 9 7 8 2 5 8 8 11 10 10 11 11 12 13 16 16 17 17 17 16 19 15 13 13
18 16 6 6 7 7 8 6 7 8 7 7 9 10 8 9 9 10 12 12 12 12 15 16 16 16 17 17 15 13 13 14
22 11 8 9 8 10 9 7 9 10 11 12 13 14 14 13 7 8 9 10 14 16 15 11 9 10 13 14 13 14 15 16
20 16 12 10 8 10 9 3 7 3 9 10 4 5 6 11 10 10 12 16 14 11 9 10 11 11 12 12 14 13 15 17
13 8 7 7 20 11 7 6 11 9 15 7 6 9 10 10 13 16 16 15 12 13 12 10 11 9 12 12 8 11 13 12
14 5 6 14 6 15 15 5 7 3 7 10 7 7 2 4 11 13 9 9 8 7 6 7 6 8 7 8 10 12 13 12
5 7 4 1 3 5 9 6 2 5 1 4 5 5 4 7 1 4 2 3 3 4 4 4 7 7 7 6 8 10 12 12
3 7 8 5 3 3 4 1 6 4 6 7 6 6 4 6 4 8 8 5 7 5 5 2 3 7 7 6 8 12 12 13
1 1 4 4 9 4 5 4 4 4 2 7 7 5 3 3 10 8 9 9 7 5 5 3 2 4 7 7 12 9 9 8
3 4 0 14 8 5 5 7 5 8 9 16 8 5 7 9 10 11 10 10 7 4 1 2 5 7 8 7 4 10 12 9
1 2 6 9 4 4 2 16 10 12 6 7 10 8 7 8 9 7 8 6 5 5 6 5 5 3 4 2 9 11 12 11
4 7 8 10 9 7 6 11 8 10 15 14 11 13 12 10 7 6 6 6 4 6 8 4 4 4 6 8 12 13 14 10
6 4 2 8 7 5 7 13 15 17 15 13 16 10 9 7 5 5 5 7 6 3 4 7 7 8 9 12 14 13 13 11
7 8 7 8 5 3 14 13 12 15 16 14 14 9 7 10 8 7 7 4 5 5 6 4 7 8 10 13 15 16 11 8
5 9 10 9 9 6 16 13 11 14 10 9 7 6 6 4 6 6 6 6 4 1 1 2 2 6 2 2 2 4 8 6
Wind_Direction
183 147 142 188 153 187 111 37 88 202 284 305 232 252 207 212 178 198 196 196 194 190 191 193 197 201 199 198 204 192 191 187
246 140 218 164 169 100 1 143 219 261 265 232 255 246 212 204 201 203 202 194 193 190 192 197 203 203 200 203 202 194 191 191
143 208 209 124 154 61 120 133 168 200 258 215 218 220 213 213 210 198 194 191 190 192 196 199 203 199 201 202 197 194 192 187
218 230 203 192 181 162 182 229 211 176 255 222 215 207 224 225 215 185 184 191 190 193 195 200 203 202 201 200 201 204 195 184
288 299 224 188 170 126 117 92 189 179 257 288 251 246 228 218 179 175 181 182 187 188 198 198 202 204 206 200 207 199 187 177
222 228 176 193 175 177 152 144 173 211 235 253 236 226 224 224 188 181 188 181 182 190 200 201 199 200 204 207 204 191 179 181
224 191 178 204 179 171 177 186 163 232 199 229 212 208 208 206 186 157 177 178 193 200 204 197 195 203 206 206 194 184 185 187
229 208 193 224 212 178 195 132 247 250 227 221 222 110 146 190 181 193 196 203 202 203 192 191 196 197 196 201 200 184 193 202
241 178 174 235 232 207 190 181 171 184 222 168 187 202 211 183 192 203 210 199 188 193 196 196 194 180 196 200 177 183 198 198
242 90 167 235 189 214 209 189 206 222 198 201 190 215 358 318 201 205 180 184 187 177 183 197 171 189 184 172 172 181 191 189
178 163 239 58 54 142 157 220 269 221 218 238 115 80 15 3 218 147 122 84 151 153 190 138 179 179 182 169 160 170 187 187
318 145 183 220 312 42 268 101 6 294 186 169 147 111 262 332 49 83 90 80 78 58 90 308 194 167 171 173 157 183 186 190
292 198 297 13 319 311 138 213 326 321 147 115 81 123 147 175 74 79 81 72 75 82 96 230 149 152 173 169 197 163 160 167
224 46 202 358 341 173 150 138 110 59 50 72 60 70 94 75 78 75 73 64 55 82 189 208 154 154 202 206 74 125 122 125
165 79 304 308 316 348 95 100 105 88 77 96 81 46 50 53 53 59 76 92 94 72 53 39 21 252 96 132 127 110 108 117
98 342 336 353 351 5 31 69 75 87 78 66 61 38 37 32 37 45 28 36 45 73 61 65 94 82 114 129 107 116 112 120
75 192 257 14 4 312 65 72 65 57 60 73 68 40 44 36 34 45 34 17 35 87 141 112 113 115 131 121 123 122 131 148
186 191 138 128 295 308 77 74 72 71 55 47 58 44 35 38 12 23 24 41 46 27 55 87 116 133 147 155 155 147 149 164
127 86 90 106 84 61 81 68 58 63 61 59 48 62 43 25 21 21 5 13 39 31 355 116 135 149 110 103 113 147 138 125